Location: Observatoire de Paris
(48.8363°N, 2.3365°E)
Time: 20:38:28
(UTC+01:00)

NUDT-PHONESAT - Visible Passes

Search period start: 19 September 2021 00:00
Search period end: 29 September 2021 00:00
Orbit: 475 x 492 km, 97.4° (Epoch: 19 September)

Date Brightness Start Highest point End Pass type
(mag) Time Alt. Az. Time Alt. Az. Time Alt. Az.
20 Sep ? 20:02:55 10° WSW 20:04:22 12° W 20:05:49 10° WNW visible
21 Sep ? 19:36:46 10° SW 19:39:37 22° W 19:42:29 10° NW visible
22 Sep ? 19:11:32 10° S 19:14:57 40° W 19:18:23 10° NNW visible
24 Sep ? 19:57:43 10° WSW 19:59:34 13° W 20:01:25 10° WNW visible
25 Sep ? 19:31:48 10° SSW 19:34:48 24° W 19:37:47 10° NW visible
26 Sep ? 19:06:38 10° S 19:10:07 46° W 19:13:35 10° NNW visible
28 Sep ? 19:52:28 10° SW 19:54:37 15° W 19:56:47 10° NW visible
